Cairns, Australia

10:05 PM AEST on March 25, 2017 (GMT +1000)
Cairns International

Weather History for YBCS - February, 2014

Change the Weather History Date:

Wednesday, February 12, 2014

  Actual Average Record
Temperature  
Mean Temperature 79 °F -  
Max Temperature 84 °F 88 °F 93 °F (2005)
Min Temperature 74 °F 74 °F 73 °F (2001)
Cooling Degree Days 14    
Growing Degree Days 29 (Base 50)    
Moisture  
Dew Point 74 °F    
Average Humidity 88    
Maximum Humidity 94    
Minimum Humidity 67    
Precipitation  
Precipitation 0.43 in 0.57 in - ()
Sea Level Pressure  
Sea Level Pressure 29.82 in    
Wind  
Wind Speed 9 mph ()    
Max Wind Speed 14 mph    
Max Gust Speed -    
Visibility 6.2 miles    
Events Rain    
Averages and records for this station are not official NWS values.
T = Trace of Precipitation, MM = Missing Value Source: Averaged Metar Reports

Daily Weather History Graph

Daily Weather History Graph

Search for Another Location

Airport or City:

Trip Planner

Search our weather history database for the weather conditions in past years. The results will help you decide how hot, cold, wet, or windy it might be!

Date:

Astronomy

Feb. 12, 2014 Rise Set
Actual Time 6:10 AM AEST 6:51 PM AEST
Civil Twilight 5:48 AM AEST 7:14 PM AEST
Nautical Twilight 5:21 AM AEST 7:40 PM AEST
Astronomical Twilight 4:55 AM AEST 8:07 PM AEST
Moon 4:47 PM AEST (2/12) 3:40 AM AEST (2/12)
Length of Visible Light 13h 26m
Length of Day
12h 41m
Waxing Gibbous, 92% of the Moon is Illuminated
Feb 12
Waxing Gibbous
Feb 15
Full
Feb 23
Last Quarter
Mar 1
New
Mar 8
First Quarter

Hourly Weather History & Observations

Time (AEST) Temp. Heat Index Dew Point Humidity Pressure Visibility Wind Dir Wind Speed Gust Speed Precip Events Conditions
12:00 AM 75 °F - 72 °F 88% 29.85 in - South 13.8 mph - -   Overcast
12:00 AM 75.2 °F - 71.6 °F 89% 29.83 in 6.2 mi South 13.8 mph - N/A Rain Light Rain Showers
12:30 AM 75.2 °F - 71.6 °F 89% 29.83 in 6.2 mi South 8.1 mph - N/A Rain Light Rain Showers
1:00 AM 76 °F - 72 °F 82% 29.83 in - SSW 8.1 mph - -  
1:00 AM 75.2 °F - 71.6 °F 89% 29.80 in 6.2 mi SSW 8.1 mph - N/A   Mostly Cloudy
1:30 AM 75.2 °F - 73.4 °F 94% 29.80 in 6.2 mi NNW 4.6 mph - N/A   Mostly Cloudy
2:00 AM 75.2 °F - 71.6 °F 89% 29.80 in 6.2 mi South 10.4 mph - N/A   Mostly Cloudy
2:30 AM 75.2 °F - 71.6 °F 89% 29.77 in 6.2 mi South 10.4 mph - N/A   Mostly Cloudy
3:00 AM 76 °F - 71 °F 81% 29.78 in - South 12.7 mph - -  
3:00 AM 77.0 °F - 71.6 °F 83% 29.77 in 6.2 mi South 12.7 mph - N/A   Mostly Cloudy
3:30 AM 75.2 °F - 71.6 °F 89% 29.77 in 6.2 mi South 6.9 mph - N/A   Mostly Cloudy
4:00 AM 76 °F - 73 °F 87% 29.78 in - South 8.1 mph - -  
4:00 AM 75.2 °F - 73.4 °F 94% 29.77 in 5.0 mi South 8.1 mph - N/A Rain Light Rain Showers
4:30 AM 75.2 °F - 73.4 °F 94% 29.77 in 6.2 mi SE 8.1 mph - N/A   Mostly Cloudy
5:00 AM 77.0 °F - 73.4 °F 89% 29.77 in 6.2 mi South 11.5 mph - N/A Rain Light Rain Showers
5:30 AM 75.2 °F - 73.4 °F 94% 29.77 in 6.2 mi South 12.7 mph - N/A Rain Light Rain Showers
6:00 AM 76 °F - 73 °F 87% 29.80 in 7 mi South 10.4 mph - - Rain Light Rain Showers
6:00 AM 77.0 °F - 73.4 °F 89% 29.80 in 6.2 mi South 10.4 mph - N/A Rain Light Rain Showers
6:30 AM 75.2 °F - 73.4 °F 94% 29.80 in 6.2 mi SSE 8.1 mph - N/A   Mostly Cloudy
7:00 AM 77 °F - 72 °F 82% 29.83 in - South 8.1 mph - -  
7:00 AM 77.0 °F - 73.4 °F 89% 29.80 in 6.2 mi South 8.1 mph - N/A   Scattered Clouds
7:30 AM 78.8 °F - 71.6 °F 78% 29.83 in 6.2 mi South 11.5 mph - N/A   Scattered Clouds
8:00 AM 80.6 °F 85.4 °F 73.4 °F 79% 29.83 in 6.2 mi South 10.4 mph - N/A   Scattered Clouds
8:30 AM 77.0 °F - 73.4 °F 89% 29.83 in 6.2 mi South 11.5 mph - N/A Rain Light Rain Showers
8:46 AM 78.8 °F - 73.4 °F 83% 29.83 in 6.2 mi South 10.4 mph - N/A   Scattered Clouds
9:00 AM 80 °F - 74 °F 78% 29.84 in 16 mi South 10.4 mph - -   Mostly Cloudy
9:00 AM 80.6 °F 86.2 °F 75.2 °F 84% 29.83 in 6.2 mi South 10.4 mph - N/A   Mostly Cloudy
9:23 AM 80.6 °F 86.2 °F 75.2 °F 84% 29.83 in 6.2 mi South 8.1 mph - N/A Rain Light Rain Showers
9:30 AM 78.8 °F - 75.2 °F 89% 29.83 in 6.2 mi South 9.2 mph - N/A Rain Light Rain Showers
10:00 AM 78 °F - 75 °F 89% 29.85 in - South 8.1 mph - -  
10:00 AM 77.0 °F - 75.2 °F 94% 29.83 in 3.1 mi South 8.1 mph - N/A Rain Light Rain Showers
10:30 AM 80.6 °F 86.2 °F 75.2 °F 84% 29.83 in 6.2 mi South 10.4 mph - N/A Rain Light Rain Showers
10:46 AM 77.0 °F - 75.2 °F 94% 29.83 in 3.1 mi South 13.8 mph - N/A Rain Light Rain Showers
11:00 AM 78.8 °F - 75.2 °F 89% 29.83 in 6.2 mi South 10.4 mph - N/A   Mostly Cloudy
11:17 AM 80.6 °F 86.2 °F 75.2 °F 84% 29.83 in 6.2 mi South 8.1 mph - N/A   Mostly Cloudy
11:30 AM 80.6 °F 86.2 °F 75.2 °F 84% 29.83 in 6.2 mi South 10.4 mph - N/A   Mostly Cloudy
12:00 PM 81 °F - 76 °F 79% 29.83 in 16 mi SSE 10.4 mph - -   Partly Cloudy
12:00 PM 80.6 °F 86.2 °F 75.2 °F 84% 29.83 in 6.2 mi SSE 10.4 mph - N/A   Mostly Cloudy
12:30 PM 82.4 °F 89.5 °F 75.2 °F 79% 29.80 in 6.2 mi SE 9.2 mph - N/A   Mostly Cloudy
1:00 PM 84 °F - 75 °F 67% 29.81 in - SSE 11.5 mph - -  
1:00 PM 84.2 °F 92.3 °F 75.2 °F 74% 29.80 in 6.2 mi SSE 11.5 mph - N/A   Mostly Cloudy
1:30 PM 80.6 °F 86.2 °F 75.2 °F 84% 29.80 in 6.2 mi SE 13.8 mph - N/A Rain Light Rain Showers
1:40 PM 78.8 °F - 75.2 °F 89% 29.80 in 3.7 mi ESE 12.7 mph - N/A Rain Light Rain Showers
1:50 PM 78.8 °F - 75.2 °F 89% 29.80 in 6.2 mi South 8.1 mph - N/A   Mostly Cloudy
2:00 PM 80.6 °F 86.2 °F 75.2 °F 84% 29.80 in 6.2 mi South 10.4 mph - N/A   Mostly Cloudy
2:30 PM 78.8 °F - 75.2 °F 89% 29.80 in 6.2 mi South 10.4 mph - N/A Rain Light Rain Showers
3:00 PM 78 °F - 75 °F 89% 29.80 in 9 mi South 6.9 mph - - Rain Light Rain Showers
3:00 PM 78.8 °F - 75.2 °F 89% 29.80 in 6.2 mi South 6.9 mph - N/A Rain Light Rain Showers
3:30 PM 78.8 °F - 75.2 °F 89% 29.80 in 6.2 mi South 6.9 mph - N/A Rain Light Rain Showers
4:00 PM 77 °F - 75 °F 92% 29.80 in - SSE 11.5 mph - -  
4:00 PM 77.0 °F - 75.2 °F 94% 29.80 in 5.0 mi SSE 11.5 mph - N/A Rain Light Rain Showers
4:30 PM 77.0 °F - 75.2 °F 94% 29.80 in 6.2 mi SSE 9.2 mph - N/A   Mostly Cloudy
5:00 PM 77.0 °F - 75.2 °F 94% 29.80 in 6.2 mi South 5.8 mph - N/A   Mostly Cloudy
5:30 PM 77.0 °F - 73.4 °F 89% 29.80 in 6.2 mi South 6.9 mph - N/A   Mostly Cloudy
6:00 PM 77 °F - 74 °F 86% 29.81 in - SSE 8.1 mph - -   Overcast
6:00 PM 77.0 °F - 73.4 °F 89% 29.80 in 6.2 mi SSE 8.1 mph - N/A Rain Light Rain Showers
6:27 PM 77.0 °F - 75.2 °F 94% 29.80 in 5.6 mi SSE 10.4 mph - N/A Rain Light Rain Showers
6:30 PM 77.0 °F - 75.2 °F 94% 29.80 in 5.6 mi SSE 10.4 mph - N/A Rain Light Rain Showers
6:45 PM 77.0 °F - 73.4 °F 89% 29.83 in 6.2 mi SSE 8.1 mph - N/A Rain Light Rain Showers
7:00 PM 76 °F - 74 °F 90% 29.84 in - South 9.2 mph - -  
7:00 PM 75.2 °F - 73.4 °F 94% 29.83 in 4.3 mi South 9.2 mph - N/A Rain Light Rain Showers
7:30 PM 77.0 °F - 73.4 °F 89% 29.83 in 4.3 mi South 10.4 mph - N/A Rain Light Rain Showers
8:00 PM 77.0 °F - 73.4 °F 89% 29.83 in 5.0 mi South 8.1 mph - N/A Rain Light Rain Showers
8:30 PM 75.2 °F - 73.4 °F 94% 29.86 in 4.3 mi South 13.8 mph - N/A Rain Light Rain Showers
9:00 PM 75 °F - 72 °F 89% 29.86 in - South 12.7 mph - -   Overcast
9:00 PM 75.2 °F - 73.4 °F 94% 29.86 in 5.0 mi South 12.7 mph - N/A Rain Light Rain Showers
9:30 PM 75.2 °F - 71.6 °F 89% 29.86 in 6.2 mi South 8.1 mph - N/A   Mostly Cloudy
10:00 PM 76 °F - 72 °F 84% 29.87 in - South 9.2 mph - -  
10:00 PM 75.2 °F - 71.6 °F 89% 29.86 in 6.2 mi South 9.2 mph - N/A   Mostly Cloudy
10:30 PM 75.2 °F - 71.6 °F 89% 29.86 in 6.2 mi SSE 8.1 mph - N/A   Mostly Cloudy
11:00 PM 75.2 °F - 71.6 °F 89% 29.86 in 6.2 mi South 9.2 mph - N/A   Scattered Clouds
11:30 PM 77.0 °F - 69.8 °F 78% 29.86 in 6.2 mi South 9.2 mph - N/A   Scattered Clouds